Showing default

USA 15, 16591

Orbit data source: Space-Track

USA 15, 16591 is an American payload satellite in LEO that was launched on Sun, 09 Feb 1986 UTC via an ATLAS H launch vehicle from the Air Force Western Test Range (AFWTR). Payload-class satellites include a variety of spacecraft equipped with specific instruments for various scientific and technological missions. These include communications satellites like Starlink; space stations such as the ISS; scientific satellites like the Hubble; Earth observation satellites from companies like Planet Labs, Umbra, and HawkEye 360; GPS; miniature CubeSats for education and research; and military/defense satellites.

Loading next visibility...
Identifier
16591, 1986-014A
Orbit
LEO
Country
Flag of USUS
Related business
Manufacturer
Martin Marietta
Mission
Spacecraft
Bus & Motor
NOSS MSD, Unknown motor
Mass
590 kg wet, 559 kg dry
Launch date (UTC)
1986-02-09 (40 years ago)
Launch vehicle
ATLAS H
Launch site
Air Force Western Test Range (AFWTR)
Object type
Payload
Rocket body
Debris
Shape & HBR
Unknown
Radar Cross Section
Large (>1 m²)

Expand to show TLE details & history
Last TLE update: 2 days ago

TLE from 2 days ago
0 USA 15
1 16591U 86014A   26171.45469672  .00011339  00000-0  60055-3 0  9997
2 16591  63.2960 244.1790 0659729 113.2304 253.9611 14.15311630108392
Epoch: 2026-06-20T10:54Z
TLE epoch observation values (Epoch: 2026-06-20T10:54:45.796Z)
Latitude
-0.00009°
Longitude
171.81906°
Altitude
1,002.874 km
Speed
7.269 km/s
True Right ascension
16h 16m 42s
True Declination
0° 00' 00"
Sunlit
Object was in full shadow at epoch
Visualization orbit readout
Latitude
Unknown
Longitude
Unknown
Altitude
Unknown
Speed
Unknown
Apparent Right ascension
Unknown
Apparent Declination
Unknown
Sunlit
N/A
Visualization observer readout
Local Sidereal Time
23:07:52
Azimuth
Unknown
Elevation
Unknown
Doppler factor
Unknown
Orbital elements
Apogee altitude
1,316.251 km
Perigee altitude
363.842 km
Semi-major axis
7,218.184 km
Eccentricity
0.06597
Inclination
63.296°
RAAN
244.179°
Arg. of periapsis
113.2304°
True anomaly
246.87548°
Mean anomaly
253.9611°
Eccentric anomaly
250.40015°
Mean motion
3.53917 °/min
Orbital period
101.72 mins
BSTAR
0.00060055
Loading maneuver chart data...
Computing Atmospheric mass density...
Loading historical data...
Loading historical data...
Loading historical data...
Loading historical data...
Loading historical data...
Loading historical data...
Loading historical data...

Documentation

Showing up to 5 results
|